Tracking 30258 objects as of 19-Feb-2025
HD Live streaming from Space Station
objects crossing your sky now

METEOR 2-8 DEB

Track METEOR 2-8 DEB now!
10-day predictions


NORAD ID: 36343
Int'l Code: 1982-025AD
Perigee: 817.9 km
Apogee: 838.4 km
Inclination: 82.5 °
Period: 101.3 minutes
Semi major axis: 7199 km
RCS: 0.0095 m2 (small)
Launch date: March 25, 1982
Source: Commonwealth of Independent States (former USSR) (CIS)
Launch site: PLESETSK MISSILE AND SPACE COMPLEX (PKMTR)

Note: This is SATELLITE DEBRIS
Your satellite tracking list
Your tracking list is empty




NASA's NSSDC Master Catalog

Two Line Element Set (TLE):
1 36343U 82025AD  25049.26731921  .00007249  00000-0  33157-2 0  9990
2 36343  82.5070 251.9816 0014230 263.1285  96.8277 14.21282997588209
Source of the keplerian elements: AFSPC